Tracking 19145 objects as of 25-Apr-2018
HD Live streaming from Space Station
objects crossing your sky now

FENGYUN 1C DEB

Track FENGYUN 1C DEB now!
10-day predictions


NORAD ID: 30336
Int'l Code: 1999-025AAX
Perigee: 812.5 km
Apogee: 879.7 km
Inclination: 98.9 °
Period: 101.7 minutes
Semi major axis: 7217 km
RCS: 0.026 m2 (small)
Launch date: May 10, 1999
Source: People's Republic of China (PRC)
Launch site: Taiyaun Space Center, China (TSC)

Note: This is SATELLITE DEBRIS
aabbcc
Your satellite tracking list
Your tracking list is empty




NASA's NSSDC Master Catalog

Two Line Element Set (TLE):
1 30336U 99025AAX 18115.54505278  .00000133  00000-0  88826-4 0  9995
2 30336  98.9020 144.9083 0046537  71.4741  82.6519 14.15985575581592
Source of the keplerian elements: AFSPC